Preview of NWS' New Version of Forecast
This preview is not operational and should not be used for support decisions.

Regional Weather Roundup (RWR)

Issued by National Weather Service (NWS)

                            
000
ASUS43 KDMX 180706
RWRIA 

WEATHER ROUNDUP FOR IOWA
NATIONAL WEATHER SERVICE DES MOINES IA
200 AM CDT TUE JUN 18 2019

NOTE: "FAIR" INDICATES FEW OR NO CLOUDS BELOW 12,000 FEET WITH NO
SIGNIFICANT WEATHER AND/OR OBSTRUCTIONS TO VISIBILITY.

* - THESE STATIONS ARE NOT NWS STATIONS...THUS NOT UNDER NWS
QUALITY CONTROL.  THEY ALSO DO NOT REPORT WEATHER SUCH 
AS PRECIPITATION OR FOG.  

IAZ001>003-012>014-020>022-031>034-043>046-180800-
   NORTHWEST IOWA
  
CITY           SKY/WX    TMP DP  RH WIND       PRES   REMARKS
CARROLL *      CLOUDY    66  64  94 N6        30.00R                  
CHEROKEE *     LGT RAIN  64  64 100 CALM      30.00F                  
DENISON *      LGT RAIN  64  64 100 CALM      30.00S                  
LE MARS *      CLOUDY    66  66 100 NE7       29.99S                  
SHELDON *        N/A     63  63 100 NE3       29.99F                  
SIOUX CITY     CLOUDY    66  64  93 CALM      29.98S                  
SPENCER        CLOUDY    64  58  80 N3        30.00F                  
STORM LAKE *   CLOUDY    63  63 100 CALM      29.98S                  
$$
 
IAZ055>058-069>071-079>083-090>094-180800-
   SOUTHWEST IOWA
  
CITY           SKY/WX    TMP DP  RH WIND       PRES   REMARKS
ATLANTIC *     MOCLDY    64  64 100 CALM      29.97F                  
AUDUBON *      CLOUDY    64  63  94 CALM      30.00R                  
CLARINDA *     MOCLDY    64  63  94 CALM      29.99S                  
COUNCIL BLFS * CLOUDY    66  66 100 E5        29.95F                  
CRESTON *      CLOUDY    63  61  94 SE5       29.98F                  
HARLAN  *      MOCLDY    64  64 100 CALM      29.98F                  
LAMONI         CLEAR     65  61  87 SE6       29.98F                  
RED OAK *      CLOUDY    66  63  88 CALM      29.97F                  
SHENANDOAH *   CLOUDY    68  64  88 E3        29.95F                  
$$
 
IAZ047>049-059>061-072>074-084-180800-
   CENTRAL IOWA
  
CITY           SKY/WX    TMP DP  RH WIND       PRES   REMARKS
AMES           CLOUDY    67  65  93 NE5       29.98S                  
ANKENY *       CLOUDY    68  66  94 CALM      29.98S                  
BOONE *        CLOUDY    66  66 100 N6        29.98S                  
CHARITON *     CLOUDY    64  64 100 SE6       29.97F                  
DES MOINES     CLOUDY    68  63  84 SE6       29.96F                  
GRINNELL*      CLEAR     64  61  88 SE5       30.00S                  
KNOXVILLE *    CLEAR     63  61  94 S5        29.97F                  
MARSHALLTOWN   PTCLDY    67  63  87 S6        29.98S                  
NEWTON *       CLEAR     64  64 100 CALM      29.98S                  
PELLA *        CLEAR     63  60  92 SE5       29.98F                  
PERRY *        CLOUDY    66  66 100 CALM      29.98R                  
$$
 
IAZ004>006-015-016-023>025-035-036-180800-
   NORTH CENTRAL IOWA
  
CITY           SKY/WX    TMP DP  RH WIND       PRES   REMARKS
ALGONA *       MOCLDY    61  61 100 NE3       29.99F                  
CLARION *      CLOUDY    64  64 100 E3        30.00S                  
ESTHERVILLE    CLOUDY    60  57  89 N5        29.99F                  
FORT DODGE *   CLOUDY    64  63  96 E5        30.00S                  
MASON CITY     PTCLDY    63  62  97 SW6       30.01S FOG              
FOREST CITY *  CLOUDY    61  61 100 CALM      30.00S FOG              
IOWA FALLS *   CLOUDY    66  65  97 CALM      30.00F                  
$$

IAZ007>011-017>019-026>030-037>042-050>054-066-180800-
   NORTHEAST IOWA
  
CITY           SKY/WX    TMP DP  RH WIND       PRES   REMARKS
CEDAR RAPIDS   FAIR      58  58 100 E6        29.97F                  
CHARLES CITY * CLOUDY    66  64  94 E3        29.99F FOG              
CLINTON *      FAIR      58  57  97 N7        30.00S                  
DECORAH *      CLOUDY    64  63  94 CALM      29.98F                  
DUBUQUE        FAIR      56  55  97 SW3       30.00S FOG              
MONTICELLO *   CLOUDY    59  59 100 CALM      29.99F FOG              
OELWEIN *      CLOUDY    64  64 100 S7        30.00S                  
WATERLOO       CLOUDY    68  62  81 S5        29.98S                  
$$
 
IAZ064-065-067-068-078-180800-
   EAST CENTRAL IOWA
  
CITY           SKY/WX    TMP DP  RH WIND       PRES   REMARKS
DAVENPORT      FAIR      59  56  89 N3        30.01S FOG              
IOWA CITY      FAIR      61  59  93 CALM      30.00S                  
MT. PLEASANT * CLEAR     61  61 100 CALM      29.99S                  
MUSCATINE *    FAIR      59  57  94 CALM      29.99S FOG              
QUAD CITIES    FAIR      59  56  89 CALM      29.98S                  
$$
 
IAZ062-063-075>077-085>089-095>099-180800-
   SOUTHEAST IOWA
  
CITY           SKY/WX    TMP DP  RH WIND       PRES   REMARKS
BURLINGTON     CLEAR     60  57  89 CALM      29.99R                  
FAIRFIELD *    CLEAR     59  59 100 E6        29.98F FOG              
FORT MADISON * CLEAR     61  61 100 CALM      30.00S                  
KEOKUK *       MOCLDY    63  61  94 E5        29.98F                  
OSKALOOSA *    FAIR      63  60  90 SE3       29.99S FOG              
CENTERVILLE *  FAIR      59  59 100 CALM      30.00F                  
OTTUMWA        CLEAR     59  57  93 CALM      29.98S FOG              
WASHINGTON *   CLEAR     59  59 100 E3        29.99F FOG              
$$

ABBREVIATIONS USED IN REMARKS
   TC - TEMPERATURES IN CELSIUS
  WCI - WIND CHILL INDEX
   HX - HEAT INDEX
  VSB - VISIBILITY  
$$